This is the latest recevied weather packets stored in our database for station/object KI5NXU. If no packets are shown the sender has not sent any weather packets the latest 10 day(s).
| Time | Temp. | Humidity | Pressure | Rain* | Wind** | Luminosity | Snow |
|---|---|---|---|---|---|---|---|
| 1778019177 | 25° C | 61% | 1004.5 hPa | 0 mm | - | 91 W/m² | - |
| 1778018874 | 25.56° C | 60% | 1004.9 hPa | 0 mm | - | 77 W/m² | - |
| 1778018571 | 25.56° C | 60% | 1004.9 hPa | 0 mm | - | 107 W/m² | - |
| 1778018269 | 25.56° C | 60% | 1004.9 hPa | 0 mm | - | 140 W/m² | - |
| 1778017967 | 25.56° C | 59% | 1004.9 hPa | 0 mm | - | 121 W/m² | - |
| 1778017664 | 26.11° C | 59% | 1004.9 hPa | 0 mm | - | 121 W/m² | - |
| 1778017362 | 26.11° C | 59% | 1004.9 hPa | 0 mm | - | 154 W/m² | - |
| 1778017059 | 26.67° C | 59% | 1004.9 hPa | 0 mm | - | 171 W/m² | - |
| 1778016756 | 27.22° C | 57% | 1004.8 hPa | 0 mm | - | 207 W/m² | - |
| 1778016452 | 28.33° C | 55% | 1004.6 hPa | 0 mm | - | 222 W/m² | - |
| 1778016149 | 28.33° C | 55% | 1004.6 hPa | 0 mm | - | 648 W/m² | - |
| 1778015846 | 28.33° C | 55% | 1004.4 hPa | 0 mm | - | 438 W/m² | - |
| 1778015544 | 28.33° C | 56% | 1004.5 hPa | 0 mm | - | 509 W/m² | - |
| 1778015240 | 28.89° C | 55% | 1004.5 hPa | 0 mm | - | 329 W/m² | - |
| 1778014937 | 29.44° C | 53% | 1004.6 hPa | 0 mm | - | 535 W/m² | - |
| 1778014634 | 28.89° C | 55% | 1004.5 hPa | 0 mm | - | 607 W/m² | - |
| 1778014332 | 28.89° C | 55% | 1004.8 hPa | 0 mm | - | 671 W/m² | - |
| 1778014028 | 30° C | 53% | 1004.6 hPa | 0 mm | - | 516 W/m² | - |
| 1778013726 | 30° C | 52% | 1004.6 hPa | 0 mm | - | 641 W/m² | - |
| 1778013423 | 30.56° C | 50% | 1004.4 hPa | 0 mm | - | 644 W/m² | - |
| 1778013120 | 30° C | 46% | 1004.7 hPa | 0 mm | - | 621 W/m² | - |
| 1778012816 | 30° C | 48% | 1004.5 hPa | 0 mm | - | 655 W/m² | - |
| 1778012512 | 30° C | 47% | 1004.7 hPa | 0 mm | - | 638 W/m² | - |
| 1778012208 | 30° C | 45% | 1005 hPa | 0 mm | - | 635 W/m² | - |
| 1778011907 | 30° C | 46% | 1004.8 hPa | 0 mm | - | 648 W/m² | - |
* Rain latest hour (hover to see other rain measurements)
** Current wind speed in m/s (hover to see current wind gust speed)